TimeCST,TemperatureF,Dew PointF,Humidity,Sea Level PressureIn,VisibilityMPH,Wind Direction,Wind SpeedMPH,Gust SpeedMPH,PrecipitationIn,Events,Conditions,WindDirDegrees,DateUTC
12:15 AM,33.8,28.4,81,30.10,10.0,ESE,4.6,-,N/A,,Mostly Cloudy,110,2013-03-04 06:15:00
12:35 AM,33.8,28.4,81,30.10,10.0,ESE,5.8,-,N/A,,Overcast,120,2013-03-04 06:35:00
12:55 AM,33.8,28.4,81,30.10,10.0,ESE,5.8,-,N/A,,Overcast,110,2013-03-04 06:55:00
1:15 AM,33.8,28.4,81,30.11,10.0,ESE,4.6,-,N/A,,Overcast,120,2013-03-04 07:15:00
1:35 AM,33.8,28.4,81,30.11,10.0,ESE,4.6,-,N/A,,Overcast,120,2013-03-04 07:35:00
1:55 AM,33.8,28.4,81,30.11,10.0,ESE,4.6,-,N/A,,Overcast,120,2013-03-04 07:55:00
2:15 AM,33.8,28.4,81,30.09,10.0,East,6.9,-,N/A,,Overcast,100,2013-03-04 08:15:00
2:35 AM,33.8,26.6,75,30.08,10.0,East,9.2,-,N/A,,Overcast,90,2013-03-04 08:35:00
2:55 AM,33.8,26.6,75,30.08,10.0,ESE,8.1,-,N/A,,Overcast,110,2013-03-04 08:55:00
3:15 AM,33.8,26.6,75,30.07,10.0,ESE,8.1,-,N/A,,Overcast,110,2013-03-04 09:15:00
3:35 AM,33.8,26.6,75,30.07,10.0,ESE,6.9,-,N/A,,Mostly Cloudy,110,2013-03-04 09:35:00
3:55 AM,33.8,26.6,75,30.07,10.0,ESE,10.4,-,N/A,,Overcast,110,2013-03-04 09:55:00
4:15 AM,33.8,26.6,75,30.07,10.0,ESE,10.4,-,N/A,,Overcast,110,2013-03-04 10:15:00
4:35 AM,33.8,26.6,75,30.07,10.0,ESE,9.2,-,N/A,,Overcast,110,2013-03-04 10:35:00
4:55 AM,33.8,28.4,81,30.08,10.0,ESE,9.2,-,N/A,,Mostly Cloudy,110,2013-03-04 10:55:00
5:15 AM,33.8,28.4,81,30.07,10.0,ESE,9.2,-,N/A,,Overcast,110,2013-03-04 11:15:00
5:35 AM,33.8,28.4,81,30.06,10.0,ESE,9.2,-,N/A,,Mostly Cloudy,110,2013-03-04 11:35:00
5:55 AM,33.8,28.4,81,30.06,10.0,ESE,10.4,-,N/A,,Overcast,120,2013-03-04 11:55:00
6:15 AM,33.8,28.4,81,30.06,10.0,ESE,11.5,-,N/A,,Mostly Cloudy,120,2013-03-04 12:15:00
6:35 AM,33.8,28.4,81,30.06,10.0,ESE,10.4,-,N/A,,Scattered Clouds,120,2013-03-04 12:35:00
6:55 AM,33.8,28.4,81,30.06,10.0,ESE,12.7,-,N/A,,Scattered Clouds,120,2013-03-04 12:55:00
7:15 AM,33.8,28.4,81,30.05,10.0,ESE,12.7,-,N/A,,Scattered Clouds,110,2013-03-04 13:15:00
7:35 AM,33.8,28.4,81,30.04,10.0,ESE,11.5,-,N/A,,Scattered Clouds,120,2013-03-04 13:35:00
7:55 AM,33.8,28.4,81,30.05,10.0,ESE,11.5,-,N/A,,Clear,120,2013-03-04 13:55:00
8:15 AM,35.6,28.4,75,30.04,10.0,ESE,10.4,-,N/A,,Clear,120,2013-03-04 14:15:00
8:35 AM,37.4,28.4,70,30.03,10.0,ESE,13.8,-,N/A,,Clear,120,2013-03-04 14:35:00
8:55 AM,37.4,26.6,65,30.02,10.0,ESE,13.8,-,N/A,,Clear,120,2013-03-04 14:55:00
9:15 AM,39.2,26.6,61,30.02,10.0,ESE,13.8,20.7,N/A,,Clear,120,2013-03-04 15:15:00
9:35 AM,41.0,26.6,57,30.01,10.0,SE,17.3,20.7,N/A,,Clear,140,2013-03-04 15:35:00
9:55 AM,42.8,26.6,53,29.99,10.0,SE,19.6,-,N/A,,Clear,130,2013-03-04 15:55:00
10:15 AM,42.8,28.4,57,29.98,10.0,SE,16.1,-,N/A,,Clear,130,2013-03-04 16:15:00
10:35 AM,44.6,26.6,49,29.97,10.0,SE,18.4,23.0,N/A,,Clear,130,2013-03-04 16:35:00
10:55 AM,44.6,26.6,49,29.96,10.0,SE,13.8,-,N/A,,Clear,140,2013-03-04 16:55:00
11:15 AM,46.4,28.4,50,29.95,10.0,SE,15.0,20.7,N/A,,Clear,130,2013-03-04 17:15:00
11:35 AM,46.4,28.4,50,29.93,10.0,SE,16.1,20.7,N/A,,Clear,130,2013-03-04 17:35:00
11:55 AM,46.4,30.2,53,29.92,10.0,SE,16.1,-,N/A,,Clear,130,2013-03-04 17:55:00
12:15 PM,48.2,28.4,46,29.90,10.0,SE,19.6,-,N/A,,Clear,140,2013-03-04 18:15:00
12:55 PM,51.8,32.0,47,29.87,10.0,SE,15.0,21.9,N/A,,Clear,140,2013-03-04 18:55:00
1:15 PM,51.8,30.2,44,29.86,10.0,SE,17.3,23.0,N/A,,Scattered Clouds,140,2013-03-04 19:15:00
1:35 PM,51.8,30.2,44,29.85,10.0,SE,18.4,21.9,N/A,,Scattered Clouds,140,2013-03-04 19:35:00
1:55 PM,51.8,32.0,47,29.83,10.0,SSE,17.3,21.9,N/A,,Overcast,150,2013-03-04 19:55:00
2:15 PM,51.8,32.0,47,29.83,10.0,SE,12.7,-,N/A,,Overcast,140,2013-03-04 20:15:00
2:35 PM,50.0,32.0,50,29.83,10.0,ESE,11.5,-,N/A,,Overcast,120,2013-03-04 20:35:00
2:55 PM,50.0,32.0,50,29.84,10.0,East,6.9,-,N/A,,Overcast,100,2013-03-04 20:55:00
3:15 PM,50.0,33.8,54,29.84,10.0,SE,4.6,-,N/A,,Overcast,130,2013-03-04 21:15:00
3:35 PM,51.8,33.8,50,29.83,10.0,ESE,6.9,-,N/A,,Overcast,120,2013-03-04 21:35:00
3:55 PM,51.8,32.0,47,29.83,10.0,ESE,9.2,-,N/A,,Overcast,120,2013-03-04 21:55:00
4:15 PM,50.0,33.8,54,29.83,10.0,ESE,9.2,-,N/A,,Overcast,110,2013-03-04 22:15:00
4:35 PM,50.0,33.8,54,29.83,10.0,ESE,8.1,-,N/A,,Overcast,110,2013-03-04 22:35:00
4:55 PM,50.0,33.8,54,29.83,10.0,East,9.2,-,N/A,,Overcast,100,2013-03-04 22:55:00
5:15 PM,50.0,33.8,54,29.83,10.0,East,9.2,-,N/A,,Overcast,90,2013-03-04 23:15:00
5:35 PM,48.2,35.6,62,29.83,10.0,East,10.4,-,N/A,,Overcast,80,2013-03-04 23:35:00
5:55 PM,46.4,33.8,62,29.84,10.0,ENE,5.8,-,N/A,,Overcast,70,2013-03-04 23:55:00
6:15 PM,46.4,33.8,62,29.85,10.0,East,6.9,-,N/A,,Overcast,80,2013-03-05 00:15:00
6:35 PM,46.4,33.8,62,29.85,10.0,East,10.4,-,N/A,,Overcast,80,2013-03-05 00:35:00
6:55 PM,46.4,33.8,62,29.86,10.0,East,8.1,-,N/A,,Overcast,90,2013-03-05 00:55:00
7:15 PM,46.4,33.8,62,29.86,10.0,Calm,Calm,-,N/A,,Overcast,0,2013-03-05 01:15:00
7:35 PM,46.4,33.8,62,29.86,10.0,East,5.8,-,N/A,,Overcast,80,2013-03-05 01:35:00
7:55 PM,44.6,33.8,66,29.85,10.0,East,8.1,-,N/A,,Overcast,90,2013-03-05 01:55:00
8:15 PM,44.6,32.0,61,29.85,10.0,East,8.1,-,N/A,,Overcast,90,2013-03-05 02:15:00
8:35 PM,44.6,33.8,66,29.85,10.0,East,8.1,-,N/A,,Overcast,90,2013-03-05 02:35:00
8:55 PM,44.6,33.8,66,29.85,10.0,East,6.9,-,N/A,,Overcast,100,2013-03-05 02:55:00
9:15 PM,44.6,33.8,66,29.84,10.0,ESE,8.1,-,N/A,,Overcast,110,2013-03-05 03:15:00
9:35 PM,44.6,33.8,66,29.83,10.0,East,8.1,-,N/A,,Overcast,100,2013-03-05 03:35:00
9:55 PM,44.6,33.8,66,29.83,10.0,East,8.1,-,N/A,,Overcast,100,2013-03-05 03:55:00
10:15 PM,44.6,33.8,66,29.83,10.0,East,5.8,-,N/A,,Overcast,90,2013-03-05 04:15:00
10:35 PM,44.6,33.8,66,29.82,10.0,East,6.9,-,N/A,,Overcast,90,2013-03-05 04:35:00
10:55 PM,44.6,33.8,66,29.82,10.0,ENE,5.8,-,N/A,,Overcast,70,2013-03-05 04:55:00
11:15 PM,44.6,33.8,66,29.82,10.0,East,5.8,-,N/A,,Overcast,80,2013-03-05 05:15:00
11:35 PM,44.6,33.8,66,29.82,10.0,East,4.6,-,N/A,Rain,Light Rain,100,2013-03-05 05:35:00
11:55 PM,42.8,35.6,76,29.81,10.0,East,6.9,-,N/A,Rain,Light Rain,90,2013-03-05 05:55:00